User: anonymous   Login
Location: *
(37.5724°S, 58.0067°E)
Time: 04:06:19
(UTC+00:00)
Language:

Cosmos 2237 Rocket - Orbit

View from above orbital plane
View from above orbital plane
View from above satellite
View from above satellite

Ground track
Ground track

The orbit data is extracted from the following two-line orbital elements,

1 22566U 93016B   20336.30691883 -.00000117 +00000-0 -36009-4 0  9995
2 22566 071.0069 295.5061 0010058 358.5304 001.5787 14.14964031429934
Epoch (UTC): 01 December 2020 07:21:57
Eccentricity: 0.0010058
inclination: 71.0069°
perigee height: 835 km
apogee height: 850 km
right ascension of ascending node: 295.5061°
argument of perigee: 358.5304°
revolutions per day: 14.14964031
mean anomaly at epoch: 1.5787°
orbit number at epoch: 42993

The dashed part of the orbit path shows where the satellite is in the earth's shadow,  

DLR